Weather History for KLOU - June, 2014

Change the Weather History Date:

Saturday, June 14, 2014

  Actual Average Record
Temperature  
Mean Temperature 67 °F 75 °F  
Max Temperature 81 °F 85 °F 94 °F (1954)
Min Temperature 53 °F 66 °F 39 °F (2004)
Degree Days  
Heating Degree Days 0 0  
Month to date heating degree days 0 2  
Since 1 June heating degree days 0 2  
Since 1 July heating degree days 4706 4267  
Cooling Degree Days 2 10  
Month to date cooling degree days 140 119  
Year to date cooling degree days 395 266  
Since 1 June cooling degree days 140 119  
Growing Degree Days 19 (Base 50)    
Moisture  
Dew Point 46 °F    
Average Humidity 50    
Maximum Humidity 72    
Minimum Humidity 28    
Precipitation  
Precipitation 0.00 in 0.14 in 1.58 in (1950)
Month to date precipitation 0.61 2.25  
Year to date precipitation 20.15 22.17  
Sea Level Pressure  
Sea Level Pressure 30.08 in    
Wind  
Wind Speed 5 mph (ENE)    
Max Wind Speed 12 mph    
Max Gust Speed 16 mph    
Visibility 10 miles    
Events      
T = Trace of Precipitation, MM = Missing Value Source: NWS Daily Summary

Daily Weather History Graph

Daily Weather History Graph

Search for Another Location

Airport or City:

Trip Planner

Search our weather history database for the weather conditions in past years. The results will help you decide how hot, cold, wet, or windy it might be!

Date:

Astronomy

Jun. 14, 2014 Rise Set
Actual Time 6:18 AM EDT 9:07 PM EDT
Civil Twilight 5:47 AM EDT 9:38 PM EDT
Nautical Twilight 5:07 AM EDT 10:18 PM EDT
Astronomical Twilight 4:22 AM EDT 11:03 PM EDT
Moon 10:31 PM EDT (6/14) 8:00 AM EDT (6/14)
Length of Visible Light 15h 51m
Length of Day
14h 48m
Full, 97% of the Moon is Illuminated
Jun 14
Full
Jun 19
Last Quarter
Jun 27
New
Jul 5
First Quarter
Jul 12
Full

Hourly Weather History & Observations

Time (EDT) Temp. Dew Point Humidity Pressure Visibility Wind Dir Wind Speed Gust Speed Precip Events Conditions
12:53 AM 66.0 °F 48.0 °F 52% 30.03 in 10.0 mi North 3.5 mph - N/A   Clear
1:53 AM 61.0 °F 48.9 °F 64% 30.05 in 10.0 mi Calm Calm - N/A   Clear
2:53 AM 62.1 °F 50.0 °F 65% 30.05 in 10.0 mi Calm Calm - N/A   Clear
3:53 AM 59.0 °F 50.0 °F 72% 30.06 in 10.0 mi Calm Calm - N/A   Clear
4:53 AM 60.1 °F 44.1 °F 55% 30.07 in 10.0 mi Calm Calm - N/A   Clear
5:53 AM 59.0 °F 44.1 °F 58% 30.09 in 10.0 mi NNE 3.5 mph - N/A   Clear
6:53 AM 57.0 °F 45.0 °F 64% 30.11 in 10.0 mi Calm Calm - N/A   Clear
7:53 AM 62.1 °F 45.0 °F 53% 30.11 in 10.0 mi ENE 8.1 mph - N/A   Clear
8:53 AM 66.0 °F 46.0 °F 48% 30.12 in 10.0 mi ENE 5.8 mph - N/A   Clear
9:53 AM 66.9 °F 45.0 °F 45% 30.15 in 10.0 mi ENE 9.2 mph - N/A   Clear
10:53 AM 71.1 °F 46.0 °F 41% 30.14 in 10.0 mi East 5.8 mph - N/A   Clear
11:53 AM 72.0 °F 44.1 °F 37% 30.14 in 10.0 mi ENE 6.9 mph - N/A   Clear
12:53 PM 75.0 °F 45.0 °F 34% 30.13 in 10.0 mi Variable 5.8 mph - N/A   Clear
1:53 PM 77.0 °F 44.1 °F 31% 30.11 in 10.0 mi East 4.6 mph - N/A   Clear
2:53 PM 78.1 °F 45.0 °F 31% 30.10 in 10.0 mi ENE 8.1 mph - N/A   Clear
3:53 PM 80.1 °F 45.0 °F 29% 30.08 in 10.0 mi Variable 6.9 mph - N/A   Clear
4:53 PM 81.0 °F 45.0 °F 28% 30.06 in 10.0 mi Variable 4.6 mph - N/A   Clear
5:53 PM 81.0 °F 45.0 °F 28% 30.06 in 10.0 mi ENE 8.1 mph - N/A   Clear
6:53 PM 80.1 °F 48.0 °F 32% 30.04 in 10.0 mi ESE 8.1 mph - N/A   Clear
7:53 PM 79.0 °F 44.1 °F 29% 30.03 in 10.0 mi ESE 6.9 mph - N/A   Clear
8:53 PM 77.0 °F 46.9 °F 34% 30.04 in 10.0 mi East 4.6 mph - N/A   Clear
9:53 PM 73.9 °F 48.0 °F 40% 30.05 in 10.0 mi Calm Calm - N/A   Clear
10:53 PM 72.0 °F 50.0 °F 46% 30.06 in 10.0 mi Calm Calm - N/A   Clear
11:53 PM 70.0 °F 50.0 °F 49% 30.06 in 10.0 mi East 4.6 mph - N/A   Clear